User: anonymous   Login
Location: Unspecified
(0.0000°N, 0.0000°E)
Time: 00:13:36
(UTC+00:00)
Language:

STARLINK-30829 - Orbit

View from above orbital plane
View from above orbital plane
View from above satellite
View from above satellite

Ground track
Ground track

The orbit is defined by the following mean orbital elements,

1 58158U          26145.21184851 +.00000000 +00000-0 +40856-4 0 00005
2 58158  53.1610 224.2821 0001135  92.4674 267.6457 15.31698261    07
Epoch (UTC): 25 May 2026 05:05:03
Eccentricity: 0.0001135
inclination: 53.1610°
perigee height: 470 km
apogee height: 472 km
right ascension of ascending node: 224.2821°
argument of perigee: 92.4674°
revolutions per day: 15.31698261
mean anomaly at epoch: 267.6457°

The dashed part of the orbit path shows where the satellite is in the earth's shadow,  

DLR